CAPE
1398 1378 1487 1657 1135 942 751 544 442 814 696 813 865 1139 825 533 495 453 642 725 1058 1059 870 758 715 679 777 1023 926 872 739 505 411
859 750 834 885 840 745 635 594 463 375 315 549 848 1079 930 1207 977 847 930 742 668 688 668 1030 1213 821 847 642 716 775 799 709 716
176 231 134 43 23 0 0 6 35 0 0 43 164 265 421 886 896 841 782 751 1157 1047 869 820 1167 991 677 779 1043 1112 1013 920 847
0 0 0 0 0 0 0 0 0 0 0 0 0 0 0 0 0 0 2 109 386 440 474 463 794 747 905 1026 1208 1070 1046 1047 938
0 0 0 0 0 0 0 0 0 0 0 0 0 0 0 0 0 0 0 0 1 66 116 127 196 119 356 800 983 1186 1051 900 1154
0 0 0 0 0 0 0 0 0 0 0 0 0 0 0 0 0 0 0 0 0 0 2 94 144 164 166 175 662 438 709 891 1122
0 0 0 0 0 0 0 0 0 0 0 0 0 0 0 0 0 0 0 0 0 0 0 0 0 37 149 414 445 75 115 812 1138
0 0 0 0 0 0 0 0 0 0 0 0 0 0 0 0 0 0 0 0 0 0 0 0 0 0 0 20 257 749 781 747 983
0 0 0 0 0 0 0 0 0 0 0 0 0 0 0 0 0 0 0 0 0 0 0 0 0 0 0 0 1 124 211 315 285
0 0 0 0 0 0 0 0 0 0 0 0 0 0 0 0 0 0 0 0 0 0 0 0 0 0 0 0 0 0 0 13 48
0 0 0 0 0 0 0 0 0 0 0 0 0 0 0 0 0 0 0 0 0 0 0 0 0 0 0 0 0 0 0 0 0
0 0 0 0 0 0 0 0 0 0 0 0 0 0 0 0 0 0 0 0 0 0 1 0 0 0 0 1 0 0 0 0 0
0 0 0 0 0 0 0 0 0 0 0 0 0 0 0 0 0 1 1 0 0 0 0 1 0 0 0 0 0 0 0 0 0
0 0 0 0 0 0 0 0 0 0 0 0 0 0 0 0 0 0 0 0 0 0 0 0 1 0 0 0 0 0 0 0 0
0 0 0 0 0 0 0 0 0 0 0 0 0 0 0 0 0 0 0 0 0 0 0 0 0 0 0 0 0 0 0 0 1
0 0 0 0 0 0 0 0 0 0 0 0 0 0 0 0 0 0 0 0 0 0 0 2 3 5 3 0 0 0 0 0 1
0 0 0 0 0 0 0 0 0 0 0 0 0 0 0 0 0 0 0 0 0 5 5 5 7 5 4 1 1 0 0 0 0
0 0 0 0 0 0 0 0 0 0 0 1 0 0 0 0 0 0 0 0 2 5 4 0 1 1 2 3 0 1 0 0 1
0 0 0 0 0 0 0 0 0 0 0 2 1 1 0 0 0 0 0 0 0 0 0 0 0 0 0 0 0 0 0 1 0
0 0 0 0 0 0 0 0 0 0 0 0 0 0 2 0 0 0 0 0 1 2 0 0 0 0 0 0 0 0 0 0 0
CIN
-173 -180 -147 -79 -133 -197 -227 -329 -378 -273 -262 -194 -153 -120 -150 -184 -204 -187 -145 -127 -76 -118 -127 -134 -151 -134 -137 -126 -142 -140 -147 -179 -183
-239 -288 -232 -239 -217 -251 -235 -280 -318 -293 -281 -199 -112 -64 -99 -68 -89 -82 -77 -134 -163 -149 -117 -104 -149 -144 -130 -147 -143 -152 -167 -169 -146
-353 -344 -434 -431 -302 0 0 -338 -308 0 0 -265 -415 -379 -293 -94 -69 -94 -118 -146 -72 -82 -116 -120 -93 -131 -171 -166 -121 -117 -129 -150 -166
0 0 0 0 0 0 0 0 0 0 0 0 0 0 0 0 0 0 -163 -346 -178 -149 -136 -159 -120 -140 -122 -107 -88 -134 -150 -147 -134
0 0 0 0 0 0 0 0 0 0 0 0 0 0 0 0 0 0 0 0 -27 -357 -262 -250 -229 -267 -215 -129 -126 -120 -123 -121 -106
0 0 0 0 0 0 0 0 0 0 0 0 0 0 0 0 0 0 0 0 0 0 -172 -310 -243 -211 -201 -222 -104 -162 -103 -80 -77
0 0 0 0 0 0 0 0 0 0 0 0 0 0 0 0 0 0 0 0 0 0 0 0 0 -316 -168 -91 -100 -249 -235 -62 -42
0 0 0 0 0 0 0 0 0 0 0 0 0 0 0 0 0 0 0 0 0 0 0 0 0 0 0 -225 -103 -15 -24 -28 -15
0 0 0 0 0 0 0 0 0 0 0 0 0 0 0 0 0 0 0 0 0 0 0 0 0 0 0 0 -16 -128 -77 -39 -74
0 0 0 0 0 0 0 0 0 0 0 0 0 0 0 0 0 0 0 0 0 0 0 0 0 0 0 0 0 0 0 -234 -185
0 0 0 0 0 0 0 0 0 0 0 0 0 0 0 0 0 0 0 0 0 0 0 0 0 0 0 0 0 0 0 0 -39
0 0 0 0 0 0 0 0 0 0 0 0 0 0 0 0 0 0 0 0 0 0 0 0 0 0 0 0 0 0 0 0 0
0 0 0 0 0 0 0 0 0 0 0 0 0 0 0 0 0 -11 -6 0 0 0 0 0 0 0 0 0 0 0 0 0 0
0 0 0 0 0 0 0 0 0 0 0 0 0 0 0 0 0 0 0 -2 0 0 0 0 0 0 0 0 0 0 0 0 0
0 0 0 0 0 0 0 0 0 0 0 0 0 0 0 0 0 0 0 0 0 0 0 0 -2 -1 0 0 0 0 0 0 0
0 0 0 0 0 0 0 0 0 0 -3 -5 -2 0 0 0 0 0 0 0 0 0 0 0 -1 -1 0 0 0 0 0 0 0
0 0 0 0 0 0 0 0 0 0 0 0 0 0 0 0 0 0 0 0 0 0 0 0 0 0 0 0 0 0 0 0 0
0 0 0 0 0 0 0 0 0 0 0 -13 0 0 0 0 0 0 0 0 -1 0 0 0 0 0 0 0 0 0 0 0 0
0 0 0 0 0 0 0 0 0 0 0 -14 -16 -19 0 0 0 0 0 0 0 -1 0 0 0 0 0 0 0 0 0 0 0
0 0 0 0 0 0 0 0 0 0 0 0 -1 -2 -15 0 0 0 0 0 0 0 0 0 0 0 0 0 0 0 0 0 0
Wind_Speed
10 8 9 9 8 7 5 9 9 10 5 2 4 13 8 5 11 7 8 10 8 6 5 4 6 6 5 7 6 5 5 5 6
10 11 9 9 7 6 4 8 8 7 5 4 5 6 4 4 3 5 6 9 9 7 4 5 12 9 7 7 7 6 6 5 7
10 7 9 7 6 7 6 7 6 7 6 6 5 7 7 4 4 5 5 5 5 5 4 6 10 9 6 6 6 6 6 5 5
10 8 7 5 5 5 6 6 6 6 7 8 8 7 6 6 6 7 7 6 6 6 5 5 4 6 7 6 7 6 6 6 5
8 9 7 6 5 5 6 6 7 7 7 7 6 6 6 6 6 6 7 8 9 8 6 6 6 5 5 5 6 6 6 6 6
8 9 8 7 5 5 6 6 5 6 6 6 7 7 7 7 7 7 7 8 8 9 8 6 7 6 6 5 5 4 5 7 6
9 9 8 6 5 5 6 6 5 4 4 3 3 5 5 5 6 6 6 7 8 8 8 8 8 7 6 6 5 5 6 6 6
11 8 6 5 5 4 4 4 4 5 5 5 4 5 5 5 5 6 6 7 8 9 8 7 8 8 7 6 6 5 5 6 5
12 9 7 6 6 5 4 5 5 5 5 6 5 6 6 6 6 7 6 6 7 8 8 8 8 9 8 8 5 9 11 7 5
13 10 7 7 6 6 5 5 5 3 4 5 6 6 6 6 6 6 6 7 8 8 7 8 8 8 8 10 8 10 11 11 5
10 10 8 7 6 5 5 4 4 2 4 4 5 5 6 6 6 7 6 5 6 7 6 7 8 9 8 9 8 11 12 12 5
7 7 6 6 5 5 5 5 4 4 5 4 5 6 6 7 7 7 7 7 6 7 8 8 8 7 9 9 10 9 13 9 6
8 8 7 8 6 5 5 2 4 5 4 5 5 6 8 9 9 9 9 11 9 6 8 9 7 9 8 11 12 9 14 8 5
7 7 9 7 6 6 4 4 5 5 5 5 6 6 8 9 9 9 9 9 7 8 9 8 9 11 9 9 9 10 12 11 4
10 9 7 6 6 5 3 4 5 4 5 4 5 7 7 8 9 8 7 9 9 8 8 8 8 9 9 6 6 8 10 9 6
7 8 7 4 5 4 2 4 2 3 4 4 5 7 7 8 9 8 8 7 8 8 8 7 7 6 6 7 6 5 8 8 3
6 6 5 4 5 3 1 3 5 3 4 4 5 7 8 7 8 9 7 6 6 7 8 7 8 7 7 6 6 6 7 6 6
6 6 4 4 4 2 1 3 4 5 6 4 5 6 6 7 6 7 7 6 6 4 5 6 6 7 6 7 9 9 10 7 5
5 6 5 4 3 3 4 4 4 5 5 5 4 4 4 5 5 6 5 5 6 3 6 5 8 7 7 5 6 14 14 10 6
4 5 6 6 7 6 4 4 5 5 4 5 6 4 4 4 5 5 6 6 5 6 2 2 11 13 11 12 8 16 17 15 12
Wind_Direction
115 87 91 108 95 61 51 58 42 57 58 8 198 205 211 223 249 250 262 261 258 253 240 237 253 241 240 244 246 229 212 202 211
99 99 100 101 86 87 61 62 61 79 93 102 115 170 164 136 246 248 246 256 259 264 249 235 280 255 224 230 243 235 219 213 225
122 121 117 111 108 88 61 66 65 52 52 59 45 42 42 31 334 339 324 312 307 309 291 253 257 252 236 235 237 239 229 231 224
143 145 140 127 101 81 81 65 52 46 36 31 28 28 24 25 9 357 351 351 331 328 330 332 313 277 261 227 226 224 215 228 242
160 143 140 132 117 117 93 72 47 36 31 35 16 6 16 15 4 355 355 350 343 336 320 317 318 317 310 263 242 222 230 224 214
155 143 139 132 151 140 105 84 73 66 39 22 4 5 5 4 9 7 355 348 342 343 337 328 322 318 308 294 268 291 282 264 243
151 151 147 158 136 128 109 111 114 98 77 44 6 4 7 11 359 354 346 338 340 341 340 343 338 321 306 293 274 250 256 249 234
149 151 152 146 121 106 94 82 68 59 47 20 353 359 0 1 351 350 343 341 336 333 335 336 332 330 326 317 305 279 250 249 254
153 162 151 142 124 121 98 91 77 54 24 359 354 359 357 350 347 343 334 326 324 323 323 325 327 324 319 315 315 313 305 288 261
159 154 144 141 142 140 136 113 98 65 13 356 5 1 345 335 324 319 318 318 320 319 316 313 312 308 310 305 304 306 308 305 289
147 143 148 142 143 137 122 103 81 64 28 9 358 344 326 314 311 311 308 309 302 300 298 299 298 297 295 293 295 301 311 315 299
136 141 141 147 138 125 111 84 65 54 22 2 348 328 314 316 310 306 319 309 298 295 294 293 284 280 287 285 288 287 291 302 297
114 114 128 126 125 116 114 99 78 58 15 356 342 332 323 316 316 315 312 320 314 298 297 291 291 288 277 271 278 266 271 274 268
104 119 129 120 125 130 126 91 67 42 11 350 319 320 316 317 317 311 304 308 307 303 301 295 294 296 289 274 266 278 271 271 251
124 128 132 138 121 111 96 80 56 5 344 321 310 304 303 310 316 311 311 306 302 301 291 291 296 312 308 290 279 271 277 279 262
148 137 117 109 112 98 55 29 52 338 312 304 304 309 311 310 314 313 313 298 300 310 315 308 304 309 304 308 317 305 312 328 265
109 116 138 140 126 110 42 349 321 324 307 323 311 305 305 308 314 317 318 317 325 334 356 1 6 351 344 334 329 344 345 338 341
146 152 153 151 135 122 275 302 304 316 321 313 303 305 312 328 326 323 326 337 336 11 23 57 19 359 351 0 353 338 314 304 329
155 162 163 155 168 190 247 246 274 298 306 296 292 306 324 331 327 327 337 329 330 26 164 71 50 19 22 357 346 347 353 348 334
175 159 168 185 200 214 233 252 264 269 293 322 316 314 323 317 331 339 336 334 340 341 351 224 40 17 4 11 350 3 359 4 0